Weather in Molodcheno

Belarus     54˚18′26″N   26˚50′20″E
temp.,
°C
wind,
m/s
gust,
m/s
humid.,
%
clouds,
%
prec.,
mm/h
press.,
hPa
HPBL,
m
1 december, tue
tue100:00−3˚ssw489584 0.1 1025347
03:00−2˚ssw489586 0.1 1025370
06:00−4˚ssw369594 0.0 1026157
09:00−5˚s369280 0.0 1027117
12:00−3˚s358961 0.0 1028211
15:00−3˚sse359030 0.0 1029270
18:00−5˚sse33910 0.0 103051
21:00−5˚sse23920 0.0 103147
2 december, wed
wed200:00−6˚sse23930 0.0 103239
03:00−6˚se22920 0.0 103321
06:00−6˚ese23930 0.0 103124
09:00−6˚e23930 0.0 103236
12:00−4˚e35900 0.0 1031215
15:00−3˚ene349415 0.0 1029215
18:00−2˚ene3796100 0.1 1028300
21:00−2˚ese4895100 0.1 1027426
3 december, thu
thu300:00−5˚se379694 0.0 1027174
03:00−5˚se379684 0.0 1026199
06:00−4˚se389575 0.0 1024236
09:00−4˚se499481 0.1 1024319
12:00−3˚sse599379 0.0 1023463
15:00−2˚se589086 0.1 1022547
18:00−1˚sse5109399 0.1 1021662
21:00−1˚se61192100 0.1 1021579
4 december, fri
fri400:00sse61291100 0.0 1020618
03:00se61290100 0.0 1019633
06:00se8139099 0.0 1018743
09:00se71388100 0.0 1018756
12:00+2˚sse71492100 0.0 1017716
15:00+2˚se71493100 0.0 1017618
18:00+2˚se81789100 0.0 1016725
21:00+2˚se91888100 0.0 1017699
5 december, sat
sat500:00+1˚se91692100 0.0 1017628
03:00+2˚se81592100 0.1 1017545
06:00+2˚se81693100 0.1 1016588
09:00+3˚se81693100 0.4 1017602
12:00+3˚sse81693100 0.3 1018638
15:00+3˚se81693100 0.3 1018588
18:00+3˚se71593100 0.0 1018491
21:00+3˚se81593100 0.0 1018473